Volver al catálogo

THORAD DELTA 1 DEB

ActivoLEO
NORAD 9730·DEBRIS·🇺🇸 United States

Lanzado Nov 15, 1974 desde Vandenberg Space Force Base

Loading…

Próximos Pases (próximas 24 horas)

TLE

ActualizadoSource: Space-Track

Época: Sep 14, 2026, 08:10 UTC

1 09730U 74089DZ  26257.34081031  .00002127  00000-0  43289-2 0  9999
2 09730 101.7456 203.8407 0061059 249.7756 263.2335 13.34325549455018

Sigue THORAD DELTA 1 DEB en tiempo real con AllMySat

Download on the App Store